Regional Weather Roundup
Issued by NWS

Home | Current Version | Previous Version | Graphics & Text | Print | Product List | Glossary On
Versions: 1 2 3 4 5 6 7 8 9 10 11 12 13 14 15 16 17 18 19 20 21 22 23 24 25 26 27 28 29 30 31 32 33 34 35 36 37 38 39 40 41 42 43 44 45 46 47 48 49 50
000
ASUS44 KMEG 230710
RWRTN
TENNESSEE HOURLY STATE WEATHER ROUNDUP
NATIONAL WEATHER SERVICE MEMPHIS TN
200 AM CDT SAT MAY 23 2015

TNZ002-004-019-021-049-052-054-088>092-230800-
WEST TENNESSEE

CITY           SKY/WX    TMP DP  RH WIND       PRES   REMARKS
MEMPHIS INTL   CLOUDY    66  48  52 E6        30.22S
NWS MEMPHIS      N/A     61 N/A N/A MISG        N/A
JACKSON        PTCLDY    53  51  93 CALM      30.24F
DYERSBURG      MOCLDY    59  43  55 CALM      30.25R
PARIS          CLEAR     55  52  88 CALM      30.26R
LEXINGTON      CLEAR     48  48 100 CALM      30.24S
$$

TNZ008-025-027-028-033-062-065-066-230800-
NORTH MIDDLE TENNESSEE

CITY           SKY/WX    TMP DP  RH WIND       PRES   REMARKS
NASHVILLE      PTCLDY    53  50  89 CALM      30.28R
CLARKSVILLE    PTCLDY    55  52  89 CALM      30.26F
SMYRNA         CLEAR     51  50  97 CALM      30.29R
COOKEVILLE     CLEAR     46  46 100 CALM      30.27S
CROSSVILLE     PTCLDY    50  45  83 CALM      30.30F
$$

TNZ061-075-076-078-094-096-097-230800-
SOUTH MIDDLE TENNESSEE

CITY           SKY/WX    TMP DP  RH WIND       PRES   REMARKS
FAYETTEVILLE   CLEAR    N/A N/A N/A MISG      30.27R
TULLAHOMA      CLEAR     46  43  87 CALM      30.28S
WINCHESTER     CLEAR     48  48 100 CALM      30.27F
MCMINNVILLE    CLEAR     48  48 100 CALM      30.27F
COLUMBIA       CLEAR     48  48 100 CALM      30.25S
SHELBYVILLE    CLEAR     52  48  87 CALM      30.28R
$$

TNZ017-018-042-046-047-230800-
NORTHEAST TENNESSEE

CITY           SKY/WX    TMP DP  RH WIND       PRES   REMARKS
TRI CITIES     MOCLDY    47  45  93 NE3       30.33S
ELIZABETHTON   SUNNY     48  41  76 NE3       30.34S
$$

TNZ012-013-036-069-073-074-230800-
CENTRAL EAST TENNESSEE

CITY           SKY/WX    TMP DP  RH WIND       PRES   REMARKS
KNOXVILLE      PTCLDY    53  47  79 NE3       30.29R
OAK RIDGE      PTCLDY    52  47  83 NE3       30.31S
GATLINBURG     SUNNY     48  45  87 CALM      30.30S
MORRISTOWN     SUNNY     54  48  82 E6        30.31F
$$

TNZ083-085-099-230800-
SOUTHEAST TENNESSEE

CITY           SKY/WX    TMP DP  RH WIND       PRES   REMARKS
CHATTANOOGA    CLEAR     52  49  89 CALM      30.28S
$$

SKY/WX REPORTED AS FAIR MEANS FEW OR NO CLOUDS BELOW
12 THOUSAND FEET.



USA.gov is the U.S. government's official web portal to all federal, state and local government web resources and services.